Tracking 35237 objects as of 4-Sep-2026
HD Live streaming from Space Station
objects crossing your sky now

STARLINK-36176

Track STARLINK-36176 now!
10-day predictions


NORAD ID: 67026
Int'l Code: 2025-293Z
Launch date: December 10, 2025
Source: United States (US)
Launch site: AIR FORCE WESTERN TEST RANGE (AFWTR)
Your satellite tracking list
Your tracking list is empty




NASA's NSSDC Master Catalog

Two Line Element Set (TLE):
1 67026U 25293Z   26246.61459594  .00002285  00000-0  19922-3 0  9998
2 67026  70.0031   5.6631 0003233 268.8234  91.2554 14.98336449 41539
Source of the keplerian elements: AFSPC